Location: Ajisawe
(8.4333°N, 4.3833°E)
Time: 13:19:04
(UTC+00:00)

SR - Pass Details

Date: 26 April 2021
Orbit: 573 x 882 km, 66.7° (Epoch: 15 May)

Event Time Altitude Azimuth Distance (km) Brightness Sun altitude
Exits shadow 03:10:20 - 142° (SE) 2,424 ? -33.4°
Reaches altitude 10° 03:11:20 10° 132° (SE) 2,247 ? -33.2°
Maximum altitude 03:13:37 13° 106° (ESE) 2,093 ? -32.7°
Drops below altitude 10° 03:15:58 10° 79° (E) 2,337 ? -32.1°
Sets 03:19:52 0° 53° (NE) 3,336 ? -31.2°
